User: anonymous   Login
Location: Peebles
(55.6412°N, 3.1714°W)
Time: 20:56:08
(UTC+01:00)
Language:

Courier 1B Rocket - Orbit

View from above orbital plane
View from above orbital plane
View from above satellite
View from above satellite

Ground track
Ground track

The orbit data is extracted from the following two-line orbital elements,

1    59U 60013B   22275.24656745  .00000135  00000-0  63940-4 0  9996
2    59  28.2470 239.7128 0189310 109.7384 252.3683 13.53006614 60526
Epoch (UTC): 02 October 2022 05:55:03
Eccentricity: 0.0189310
inclination: 28.2470°
perigee height: 920 km
apogee height: 1202 km
right ascension of ascending node: 239.7128°
argument of perigee: 109.7384°
revolutions per day: 13.53006614
mean anomaly at epoch: 252.3683°
orbit number at epoch: 6052

The dashed part of the orbit path shows where the satellite is in the earth's shadow,  

DLR